Regional Weather Roundup
Issued by NWS

Home | Current Version | Previous Version | Graphics & Text | Print | Product List | Glossary On
Versions: 1 2 3 4 5 6 7 8 9 10 11 12 13 14 15 16 17 18 19 20 21 22 23 24 25 26 27
000
ASUS45 KCYS 191310
RWRWY

WYOMING REGIONAL WEATHER ROUNDUP
NATIONAL WEATHER SERVICE CHEYENNE WY
600 AM MST FRI JAN 19 2018

NOTE:  "FAIR" INDICATES FEW OR NO CLOUDS BELOW 12,000 FEET
WITH NO SIGNIFICANT WEATHER AND/OR OBSTRUCTIONS TO VISIBILITY.

WYZ001-191400-
YELLOWSTONE NATIONAL PARK

CITY           SKY/WX    TMP DP  RH WIND       PRES   REMARKS
LK YELLOWSTONE   N/A     29  28  96 VRB6      29.72F WCI  23
W YELLOWSTONE  NOT AVBL

$$
WYZ002>013-054>058-071-098>099-191400-
NORTHERN WYOMING

CITY           SKY/WX    TMP DP  RH WIND       PRES   REMARKS
JACKSON        CLOUDY    40  29  64 SW22G31   29.71F WCI  30
CODY           FAIR      33  31  92 N14G20    29.67S WCI  23
GREYBULL       MOCLDY    30  24  78 NW12      29.66R WCI  20
WORLAND        FAIR      36  27  69 N9        29.64R WCI  29
SHERIDAN       MOCLDY    37  32  82 W13       29.71S WCI  29
BUFFALO        FAIR      35  28  75 N16G31    29.68R WCI  25
GILLETTE       FAIR      41  27  57 N8        29.65R
HULETT         FAIR      41  28  60 SW9       29.65S
NEWCASTLE      FAIR      45  18  33 S3        29.68F

$$
WYZ014>020-022>026-101>103-191400-
CENTRAL WYOMING

CITY           SKY/WX    TMP DP  RH WIND       PRES   REMARKS
BIG PINEY      FAIR      19  16  88 NE6       29.80S WCI  11
PINEDALE       FAIR      19  18  93 SE5       29.81F WCI  13
DUBOIS         CLOUDY    37  23  56 NW10G20   29.69F WCI  30
LANDER         FAIR      48  27  44 SW18G31   29.67S
RIVERTON       FAIR      32  21  64 CALM      29.69F
CASPER         FAIR      42  18  37 SW29G39   29.70F
DOUGLAS        FAIR      48  19  31 SW9       29.72S

$$
WYZ021-027>030-104>119-191400-
SOUTHERN WYOMING

CITY           SKY/WX    TMP DP  RH WIND       PRES   REMARKS
EVANSTON       FAIR      42  27  55 SW25G32   29.81S
FORT BRIDGER   FAIR      40  26  55 SW10      29.84S WCI  34
ROCK SPRINGS   FAIR      32  18  56 SE9       29.82F WCI  24
DIXON            N/A     38  10  31 SW7       29.96F WCI  33
RAWLINS        LGT RAIN  42  17  36 SW24G39   29.80F
SARATOGA       FAIR      45  16  31 SW22G40   29.85F
LARAMIE        FAIR      41  17  38 SW23G30   29.83F
CHEYENNE       FAIR      49  19  30 W13       29.80S
TORRINGTON     FAIR      36  27  69 CALM      29.72S

$$




USA.gov is the U.S. government's official web portal to all federal, state and local government web resources and services.